Location: Unspecified
(34.3718°N, 0.0000°E)
Time: 02:41:45
(UTC+00:00)

NOAA 16 DEB - Visible Passes

Search period start: 04 April 2026 00:00
Search period end: 14 April 2026 00:00
Orbit: 793 x 803 km, 98.6° (Epoch: 29 March)

Date Brightness Start Highest point End Pass type
(mag) Time Alt. Az. Time Alt. Az. Time Alt. Az.
4 Apr ? 20:22:41 56° ENE 20:22:41 56° ENE 20:27:41 10° N visible
4 Apr ? 22:03:33 13° W 22:03:33 13° W 22:05:14 10° WNW visible
5 Apr ? 19:54:57 30° E 19:55:27 30° ENE 19:59:58 10° N visible
5 Apr ? 21:35:50 26° W 21:35:50 26° W 21:39:24 10° NW visible
6 Apr ? 19:27:13 16° E 19:28:26 17° ENE 19:31:40 10° NNE visible
6 Apr ? 21:08:06 49° W 21:08:06 49° W 21:12:40 10° NNW visible
7 Apr ? 20:40:22 84° NE 20:40:22 84° NE 20:45:31 10° NNW visible
8 Apr ? 20:12:37 44° E 20:13:04 45° ENE 20:18:01 10° N visible
8 Apr ? 21:53:30 18° W 21:53:30 18° W 21:56:20 10° NW visible
9 Apr ? 19:44:52 23° E 19:45:56 25° ENE 19:50:06 10° NNE visible
9 Apr ? 21:25:45 33° W 21:25:45 33° W 21:30:04 10° NNW visible
10 Apr ? 19:17:07 12° E 19:18:55 14° ENE 19:21:25 10° NE visible
10 Apr ? 20:57:59 65° W 20:57:59 65° W 21:03:08 10° NNW visible
11 Apr ? 20:30:14 65° ESE 20:30:38 68° ENE 20:35:50 10° N visible
11 Apr ? 22:11:06 11° W 22:11:06 11° W 22:12:20 10° WNW visible
12 Apr ? 20:02:27 33° E 20:03:26 36° ENE 20:08:11 10° N visible
12 Apr ? 21:43:20 22° W 21:43:20 22° W 21:47:08 10° NW visible
13 Apr ? 19:34:41 17° E 19:36:19 20° ENE 19:40:02 10° NNE visible
13 Apr ? 21:15:34 42° W 21:15:35 42° W 21:20:33 10° NNW visible
